Regional Weather Roundup
Issued by NWS

Home | Current Version | Previous Version | Text Only | Print | Product List | Glossary Off
Versions: 1 2 3 4 5 6 7 8 9 10 11 12 13 14 15 16 17 18 19 20 21 22 23 24 25 26 27 28 29 30 31 32 33 34 35 36 37 38 39 40 41 42 43 44 45 46 47 48 49 50

000
ASUS45 KCYS 291810
RWRWY

WYOMING REGIONAL WEATHER ROUNDUP
NATIONAL WEATHER SERVICE CHEYENNE WY
1200 PM MDT TUE JUL 29 2014

NOTE:  "FAIR" INDICATES FEW OR NO CLOUDS BELOW 12,000 FEET
WITH NO SIGNIFICANT WEATHER AND/OR OBSTRUCTIONS TO VISIBILITY.

WYZ001-291900-
YELLOWSTONE NATIONAL PARK

CITY           SKY/WX    TMP DP  RH WIND       PRES   REMARKS
LK YELLOWSTONE   N/A     60  46  59 E5        30.47S
6HR MIN TEMP:  51; 6HR MAX TEMP:  61; 6HR PCP:  0.01;

W YELLOWSTONE  NOT AVBL

$$
WYZ002>013-054>058-071-098>099-291900-
NORTHERN WYOMING

CITY           SKY/WX    TMP DP  RH WIND       PRES   REMARKS
JACKSON        CLOUDY    70  48  46 N16       30.33S
CODY           NOT AVBL
GREYBULL       LGT RAIN  73  55  53 S14G23    30.25R
6HR MIN TEMP:  71; 6HR MAX TEMP:  78; 6HR PCP: TRACE;

WORLAND        LGT RAIN  65  59  81 SE16      30.29R
6HR MIN TEMP:  65; 6HR MAX TEMP:  75; 6HR PCP:  0.01;

SHERIDAN       CLOUDY    74  56  53 SE3       30.26F
6HR MIN TEMP:  64; 6HR MAX TEMP:  74; 6HR PCP: TRACE;

BUFFALO        CLOUDY    69  52  54 S7        30.33F
6HR MIN TEMP:  63; 6HR MAX TEMP:  70; 6HR PCP: TRACE;

GILLETTE       CLOUDY    68  59  73 CALM      30.27F
6HR MIN TEMP:  62; 6HR MAX TEMP:  68; 6HR PCP:  0.02;

HULETT         FAIR      70  57  64 MISG      30.30
NEWCASTLE      LGT RAIN  63  59  88 MISG      30.32

$$
WYZ014>020-022>026-101>103-291900-
CENTRAL WYOMING

CITY           SKY/WX    TMP DP  RH WIND       PRES   REMARKS
BIG PINEY      LGT RAIN  64  49  57 S6        30.39R
6HR MIN TEMP:  61; 6HR MAX TEMP:  66; 6HR PCP: TRACE;

PINEDALE       CLOUDY    59  50  72 CALM      30.40S
DUBOIS         RAIN      54  50  87 SE7       30.43S
LANDER         LGT RAIN  60  58  92 N7        30.36S FOG
6HR MIN TEMP:  60; 6HR MAX TEMP:  69; 6HR PCP:  0.02;

RIVERTON       LGT RAIN  60  58  92 NE13      30.36S
6HR MIN TEMP:  59; 6HR MAX TEMP:  69; 6HR PCP:  0.13;

CASPER         CLOUDY    70  50  49 NE15      30.30F
6HR MIN TEMP:  59; 6HR MAX TEMP:  70; 6HR PCP: TRACE;

DOUGLAS        CLOUDY    75  52  44 NE14G20   30.28F
6HR MIN TEMP:  57; 6HR MAX TEMP:  77;


$$
WYZ021-027>030-104>119-291900-
SOUTHERN WYOMING

CITY           SKY/WX    TMP DP  RH WIND       PRES   REMARKS
EVANSTON       LGT RAIN  58  57  97 N6        30.37F
6HR MIN TEMP:  56; 6HR MAX TEMP:  59; 6HR PCP:  0.14;

FORT BRIDGER     N/A     60  58  92 NW7       30.41S
ROCK SPRINGS   LGT RAIN  67  51  56 E21       30.35S
6HR MIN TEMP:  64; 6HR MAX TEMP:  67; 6HR PCP: TRACE;

DIXON          LGT RAIN  63  59  87 S9        30.37S
RAWLINS        CLOUDY    71  49  45 W9        30.33F
6HR MIN TEMP:  63; 6HR MAX TEMP:  73;

SARATOGA       FAIR      73  46  38 W7        30.34F
LARAMIE        TSTM      55  52  89 NE9       30.35F
6HR MIN TEMP:  53; 6HR MAX TEMP:  73; 6HR PCP:  0.50;

CHEYENNE       PTSUNNY   67  57  70 N12G22    30.31F
6HR MIN TEMP:  57; 6HR MAX TEMP:  73;

TORRINGTON     MOSUNNY   71  58  63 MISG      30.24F
6HR MIN TEMP:  56; 6HR MAX TEMP:  72;

PINE BLUFFS    MOCLDY    75  59  57 E5        30.27F

$$


USA.gov is the U.S. government's official web portal to all federal, state and local government web resources and services.